[[{"header":{"parameterUnit":"m.s-1","parameterCategory":1,"la1":30.2991,"la2":30.254,"lo1":-89.0895,"lo2":-89.0444,"dy":0.0017,"dx":0.0017,"nx":28,"ny":28,"refTime":"2024-05-26T09:00:00:Z","depth":0,"parameterNumber":2,"parameterNumberName":"U-component_of_WINDS"},"data":[0,0,0,0,0,0,0,0,0,0,0,0,0,0,0,0,0,0,0,0,0,0,0,0,0,0,0,0,0,0,0,0,0,0,0,0,0,0,0,0,0,0,0,0,0,0,0,0,0,0,0,0,0,0,0,0,0,0,1.5919,1.5919,0,1.5936,1.5936,1.5936,1.5897,1.5896,1.5895,1.5893,1.5911,1.5913,1.5915,0,0,0,0,0,0,0,0,0,0,0,0,0,1.5852,1.5854,1.5919,1.5919,1.5919,1.5936,1.5936,1.5936,1.5897,1.5896,1.5894,1.5893,1.5911,1.5913,1.5915,0,0,0,0,0,0,0,0,0,0,0,0,0,1.5876,1.5854,1.5919,1.5902,1.5901,1.5936,1.5936,1.5936,1.5898,1.5896,1.5894,1.5892,1.591,1.5913,1.5915,1.5968,0,0,1.5923,1.5924,0,0,0,0,0,0,0,0,1.5875,1.5879,1.5904,1.5903,1.5902,1.5912,1.5919,1.5947,1.5898,1.5899,1.5893,1.5891,1.5913,1.5915,1.5923,1.5969,1.597,1.5923,1.5924,1.5925,1.5926,0,0,0,0,0,0,0,1.5873,1.5878,1.5926,1.5905,1.5903,1.5893,1.5895,1.5924,1.5916,1.5899,1.5896,1.5898,1.5912,1.592,1.5923,1.597,1.5923,1.5925,1.5926,1.5927,1.6058,1.606,0,0,0,0,0,0,1.5874,1.5877,1.5925,1.5926,1.5883,1.5896,1.5897,1.5911,1.5916,1.5915,1.59,1.5896,1.5917,1.592,1.5923,1.5984,1.5925,1.5928,1.5929,1.6056,1.6058,1.606,0,0,0,0,0,0,1.5873,1.5879,1.5925,1.5901,1.5906,1.5899,1.5915,1.5912,1.592,1.5917,1.5915,1.591,1.5916,1.592,1.5957,1.5984,1.5929,1.5931,1.6054,1.6057,1.6059,1.6107,0,0,0,0,0,0,1.5871,1.5878,1.5899,1.5902,1.5907,1.5958,1.5916,1.5914,1.5925,1.592,1.5926,1.5925,1.5915,1.5953,1.5959,1.5987,1.5933,1.6051,1.6055,1.6058,1.6103,1.6111,1.6118,0,0,0,0,0,1.5869,1.5912,1.59,1.5906,1.5933,1.596,1.5963,1.595,1.5927,1.5947,1.5945,1.5925,1.598,1.5957,1.5964,1.5992,1.6049,1.6054,1.6058,1.6099,1.6109,1.6118,0,0,0,0,0,0,1.5913,1.5912,1.5899,1.5944,1.5952,1.5953,1.5978,1.5961,1.5976,1.5972,1.5955,1.5957,1.5996,1.5998,1.5972,1.6043,1.6011,1.6017,1.604,1.6049,1.6057,1.6055,1.5935,0,0,0,0,0,1.5928,1.595,1.5948,1.5989,1.5993,1.5985,1.5996,1.5986,1.5993,1.5996,1.5997,1.6005,1.6024,1.6037,1.6055,1.6103,1.6103,1.6126,1.6133,1.614,1.6145,1.6169,1.6178,1.6075,1.6075,1.6075,0,0,1.596,1.5962,1.5977,1.5998,1.6002,1.6025,1.5988,1.6014,1.6031,1.6001,1.6035,1.6035,1.6043,1.6085,1.6104,1.6088,1.6173,1.6145,1.615,1.6152,1.6174,1.6184,1.6193,1.6078,1.6078,1.6077,0,0,1.6028,1.6033,1.6066,1.6071,1.6079,1.6073,1.6081,1.6084,1.6082,1.6116,1.6094,1.6113,1.6147,1.6153,1.616,1.623,1.6211,1.6236,1.6276,1.6299,1.6307,1.6314,1.6338,1.6346,1.6241,1.6241,1.6241,0,1.6067,1.61,1.6085,1.6112,1.6121,1.6094,1.6127,1.6133,1.6147,1.6153,1.6135,1.6176,1.6179,1.6222,1.6238,1.6246,1.6254,1.6235,1.6307,1.6314,1.6321,1.6343,1.6352,1.6244,1.6244,1.6244,1.6243,0,1.6146,1.6169,1.6195,1.6207,1.6219,1.6249,1.6238,1.6252,1.6241,1.6236,1.627,1.6274,1.629,1.63,1.6289,1.634,1.633,1.631,1.6278,1.6334,1.6354,1.6362,1.6248,1.6247,1.6246,1.6246,0,0,1.6243,1.6246,1.6255,1.626,1.6265,1.6283,1.6311,1.6327,1.6339,1.6349,1.6371,1.64,1.6381,1.6389,1.6379,1.6399,1.6452,1.6377,1.6376,1.6389,1.6507,1.6521,1.6531,1.644,1.6442,1.6443,1.6506,0,1.6309,1.6357,1.6344,1.6392,1.6412,1.6387,1.6411,1.6417,1.6414,1.643,1.6426,1.6446,1.6421,1.6425,1.6445,1.6441,1.6475,1.6437,1.646,1.6461,1.6457,1.6542,1.6557,1.6616,1.6514,1.6515,1.6516,0,1.6393,1.6405,1.6455,1.6455,1.6463,1.6485,1.6498,1.6515,1.652,1.6516,1.6525,1.651,1.6537,1.6505,1.6541,1.6516,1.6524,1.6524,1.6526,1.6527,1.6491,1.6543,1.6635,1.6643,1.6529,1.6528,1.6527,0,1.6457,1.6486,1.6518,1.6523,1.6525,1.6541,1.6543,1.6547,1.6556,1.6568,1.6574,1.6588,1.6596,1.6607,1.6596,1.6574,1.6634,1.6601,1.663,1.6631,1.6643,1.6642,1.6736,1.6651,1.6651,1.6651,1.6651,0,1.6532,1.6563,1.6547,1.6567,1.66,1.6585,1.6618,1.6617,1.6621,1.6639,1.6619,1.6637,1.6622,1.6638,1.663,1.666,1.6665,1.6661,1.6658,1.6662,1.6663,1.6667,1.6662,1.6653,1.6653,1.6652,1.6652,0,1.6608,1.6599,1.6633,1.6631,1.6632,1.6656,1.6655,1.6673,1.6668,1.6692,1.6697,1.6689,1.6707,1.6697,1.6717,1.6711,1.675,1.6743,1.6748,1.6745,1.6774,1.6771,1.6873,1.6885,1.6794,1.6795,1.6796,0,1.6656,1.6679,1.6679,1.669,1.6693,1.6711,1.6721,1.6706,1.6717,1.6725,1.6742,1.6758,1.6771,1.6801,1.6797,1.6811,1.6803,1.6837,1.6805,1.6807,1.6801,1.68,1.6801,1.6844,1.6845,1.6846,1.6846,0,1.674,1.6734,1.6749,1.6761,1.6773,1.6782,1.679,1.68,1.6786,1.6799,1.6817,1.6827,1.6846,1.6862,1.6874,1.6875,1.6858,1.6857,1.6864,1.6867,1.6869,1.6867,1.6764,1.6854,1.6853,1.6853,1.6852,1.6852,1.6803,1.6821,1.6824,1.684,1.6844,1.6852,1.6868,1.6864,1.6879,1.6893,1.6884,1.6905,1.6909,1.6923,1.6927,1.6943,1.6929,1.694,1.6942,1.6945,1.6948,1.6868,1.6945,1.6945,1.6945,1.6945,1.6945,0,1.6885,1.6885,1.69,1.6911,1.6924,1.6906,1.6913,1.6925,1.6944,1.6949,1.6961,1.6981,1.6997,1.6993,1.7007,1.702,1.7013,1.7024,1.7022,1.7023,1.696,1.6952,1.703,1.703,1.703,1.703,1.703,1.703,1.6929,1.6958,1.6952,1.6984,1.6984,1.7004,1.7009,1.7015,1.7019,1.7042,1.7055,1.7052,1.7054,1.7067,1.708,1.7079,1.7084,1.7098,1.7094,1.7036,1.7027,1.7019,1.7011,1.71,1.71,1.7155,1.7155,1.7155]},{"header":{"parameterUnit":"m.s-1","parameterCategory":1,"la1":30.2991,"la2":30.254,"lo1":-89.0895,"lo2":-89.0444,"dy":0.0017,"dx":0.0017,"nx":28,"ny":28,"refTime":"2024-05-26T09:00:00:Z","depth":0,"parameterNumber":3,"parameterNumberName":"V-component_of_WINDS"},"data":[0,0,0,0,0,0,0,0,0,0,0,0,0,0,0,0,0,0,0,0,0,0,0,0,0,0,0,0,0,0,0,0,0,0,0,0,0,0,0,0,0,0,0,0,0,0,0,0,0,0,0,0,0,0,0,0,0,0,7.1888,7.189,0,7.2063,7.2065,7.2067,7.205,7.2047,7.2044,7.2042,7.2218,7.2225,7.2232,0,0,0,0,0,0,0,0,0,0,0,0,0,7.1537,7.1544,7.1888,7.189,7.1893,7.2062,7.2065,7.2067,7.205,7.2047,7.2044,7.2041,7.2216,7.2224,7.2233,0,0,0,0,0,0,0,0,0,0,0,0,0,7.1699,7.1546,7.1888,7.1905,7.1908,7.2062,7.2065,7.2068,7.2051,7.2047,7.2043,7.2039,7.2213,7.2223,7.2234,7.2382,0,0,7.2267,7.2272,0,0,0,0,0,0,0,0,7.1689,7.1711,7.19,7.1904,7.1908,7.203,7.2006,7.2173,7.2052,7.1997,7.2042,7.2037,7.2159,7.2174,7.2215,7.239,7.2398,7.2268,7.2275,7.2279,7.2282,0,0,0,0,0,0,0,7.1678,7.1704,7.1957,7.1903,7.1907,7.1903,7.1921,7.2037,7.2098,7.2001,7.2,7.2021,7.216,7.2205,7.2219,7.24,7.2268,7.2277,7.2284,7.2288,7.2705,7.2709,0,0,0,0,0,0,7.1664,7.1695,7.1952,7.1962,7.1786,7.1912,7.1933,7.1995,7.2097,7.2109,7.2025,7.202,7.2188,7.2207,7.2225,7.2405,7.2279,7.2289,7.2296,7.27,7.2706,7.271,0,0,0,0,0,0,7.1656,7.1687,7.1945,7.1828,7.1861,7.1923,7.1993,7.2001,7.2046,7.2115,7.2125,7.2059,7.2186,7.221,7.2343,7.2411,7.2294,7.2304,7.2695,7.2702,7.2708,7.2765,0,0,0,0,0,0,7.1646,7.1684,7.1742,7.183,7.1867,7.206,7.1997,7.2007,7.2065,7.206,7.215,7.2161,7.2185,7.2327,7.2354,7.2424,7.2313,7.2689,7.2698,7.2706,7.2757,7.2773,7.2786,0,0,0,0,0,7.1634,7.175,7.1745,7.1776,7.1941,7.2064,7.2086,7.2111,7.207,7.2128,7.2172,7.2158,7.2399,7.2341,7.2371,7.2445,7.2685,7.2695,7.2705,7.2751,7.277,7.2786,0,0,0,0,0,0,7.1668,7.1762,7.1757,7.1906,7.1977,7.2061,7.2135,7.213,7.2214,7.2206,7.2233,7.2254,7.2388,7.243,7.2363,7.2593,7.2536,7.2553,7.2561,7.2579,7.2594,7.2581,7.2322,0,0,0,0,0,7.1693,7.1786,7.1863,7.1987,7.2024,7.2073,7.2128,7.2142,7.2216,7.2246,7.23,7.2372,7.2464,7.2524,7.2613,7.2763,7.2782,7.2829,7.2843,7.2855,7.2869,7.2951,7.2972,7.2744,7.2744,7.2744,0,0,7.1745,7.1808,7.1866,7.1996,7.2053,7.2148,7.2099,7.2202,7.2272,7.2261,7.239,7.2433,7.2515,7.2657,7.2723,7.2696,7.2936,7.2868,7.2877,7.2885,7.2964,7.2985,7.3004,7.2751,7.275,7.2749,0,0,7.1889,7.1947,7.2056,7.2114,7.2201,7.2233,7.226,7.2345,7.2372,7.2502,7.2496,7.258,7.2738,7.2796,7.2847,7.3013,7.3003,7.3041,7.3116,7.3196,7.3214,7.323,7.3288,7.3309,7.3055,7.3055,7.3055,0,7.1943,7.2088,7.2113,7.2217,7.2274,7.2269,7.2379,7.2434,7.2545,7.2584,7.2553,7.2751,7.2806,7.2962,7.3002,7.3044,7.3074,7.303,7.3209,7.3226,7.3241,7.3297,7.3319,7.3059,7.3058,7.3058,7.3058,0,7.2149,7.2249,7.2327,7.2435,7.2501,7.2607,7.2648,7.2711,7.2719,7.2754,7.2886,7.2952,7.3053,7.3091,7.3099,7.3248,7.3229,7.3203,7.3147,7.3266,7.3319,7.3341,7.3064,7.3063,7.3062,7.3061,0,0,7.232,7.244,7.2468,7.2517,7.2612,7.269,7.2795,7.2895,7.2949,7.3025,7.3114,7.3248,7.3225,7.3282,7.3297,7.3367,7.3493,7.3333,7.3335,7.336,7.366,7.3678,7.3703,7.3487,7.3491,7.3495,7.3653,0,7.2473,7.2662,7.2687,7.2854,7.2946,7.2942,7.3034,7.3102,7.3137,7.322,7.3259,7.3353,7.3316,7.335,7.3419,7.3463,7.3554,7.3452,7.3569,7.3573,7.3548,7.3731,7.3751,7.3897,7.3674,7.3678,7.368,0,7.2677,7.276,7.2936,7.3018,7.3057,7.314,7.3233,7.3312,7.3388,7.3409,7.3473,7.3479,7.3588,7.3527,7.3676,7.3607,7.3656,7.3685,7.3691,7.3702,7.3634,7.3747,7.3944,7.3966,7.3713,7.3711,7.3708,0,7.2783,7.2939,7.3064,7.3105,7.3204,7.3262,7.3306,7.3379,7.3437,7.3518,7.3555,7.3648,7.3698,7.3769,7.38,7.3753,7.3947,7.3889,7.3967,7.3966,7.4007,7.4004,7.4215,7.404,7.404,7.4039,7.4039,0,7.2952,7.3059,7.3113,7.3189,7.3309,7.3337,7.3455,7.3496,7.3561,7.3645,7.3647,7.3726,7.3761,7.3845,7.3869,7.3989,7.4012,7.4031,7.4036,7.4031,7.4028,7.4063,7.4054,7.4045,7.4044,7.4043,7.4042,0,7.3091,7.3131,7.3267,7.3349,7.3372,7.3457,7.3527,7.3601,7.3636,7.3742,7.3769,7.3823,7.3922,7.3959,7.4079,7.4096,7.4234,7.4231,7.4208,7.4209,7.4285,7.4277,7.4525,7.4559,7.4362,7.4364,7.4365,0,7.3195,7.3278,7.3369,7.3426,7.3472,7.3563,7.3622,7.3653,7.3714,7.3807,7.387,7.3968,7.4049,7.4207,7.4257,7.4348,7.4347,7.4428,7.4361,7.4353,7.4348,7.4343,7.4351,7.444,7.4442,7.4444,7.4445,0,7.3376,7.3392,7.3478,7.3571,7.3641,7.3716,7.3788,7.3834,7.3875,7.3944,7.4046,7.4108,7.4231,7.4329,7.4423,7.4467,7.4463,7.4466,7.4489,7.4484,7.4467,7.4477,7.4241,7.446,7.4458,7.4457,7.4457,7.4456,7.3501,7.3574,7.3649,7.3745,7.3802,7.387,7.3943,7.3987,7.4072,7.4175,7.4187,7.4296,7.437,7.4496,7.4544,7.4629,7.4607,7.464,7.4649,7.4656,7.4661,7.4454,7.4646,7.4646,7.4646,7.4645,7.4645,0,7.3682,7.373,7.3817,7.3918,7.3993,7.3983,7.4062,7.4125,7.4221,7.429,7.437,7.4486,7.458,7.4637,7.4732,7.4789,7.4789,7.4813,7.4809,7.4819,7.4676,7.4646,7.4811,7.4811,7.4811,7.4811,7.4811,7.4811,7.3785,7.3907,7.3932,7.4083,7.413,7.4237,7.4283,7.4345,7.44,7.453,7.4608,7.4645,7.4709,7.4808,7.4894,7.4909,7.4943,7.4968,7.4981,7.4846,7.4829,7.4812,7.4785,7.4976,7.4976,7.5117,7.5118,7.5119]}]]